User: anonymous   Login
Location: ??????
(55.0357°N, 38.6195°E)
Time: 23:02:04
(UTC+00:00)
Language:

Cosmos 1933 Rocket - Orbit

View from above orbital plane
View from above orbital plane
View from above satellite
View from above satellite

Ground track
Ground track

The orbit data is extracted from the following two-line orbital elements,

1 18959U 88020B   24170.90701857  .00000564  00000-0  63888-4 0  9993
2 18959  82.5376  38.9869 0015904 340.9274  19.1344 14.84547381959950
Epoch (UTC): 18 June 2024 21:46:06
Eccentricity: 0.0015904
inclination: 82.5376°
perigee height: 604 km
apogee height: 626 km
right ascension of ascending node: 38.9869°
argument of perigee: 340.9274°
revolutions per day: 14.84547381
mean anomaly at epoch: 19.1344°
orbit number at epoch: 95995

The dashed part of the orbit path shows where the satellite is in the earth's shadow,  

DLR